Wind_Speed
37 36 43 47 48 47 51 53 53 55 57 57 58 59 63 66 69 70 71 75 76 76 78 82 82 82 84 83 81 91 99 101 103 107 110 113 110 98 89 83 80 83 83
44 43 49 53 53 54 55 55 59 61 62 63 65 69 72 73 75 75 76 79 81 83 86 85 86 88 88 85 96 102 105 109 112 115 112 110 107 96 88 80 80 81 81
47 52 54 55 55 59 62 65 65 66 66 69 73 76 76 79 79 78 81 81 83 87 90 92 92 90 89 98 106 108 110 116 121 121 115 106 93 83 84 85 83 79 81
48 53 57 60 61 62 67 70 69 70 73 76 79 80 82 81 82 84 84 86 90 92 94 96 94 93 100 107 111 115 119 123 122 119 112 99 88 79 71 78 87 84 83
55 59 61 64 64 66 69 72 72 76 80 84 83 84 84 86 88 89 92 95 98 99 100 100 96 103 109 113 117 120 127 125 124 117 107 100 90 79 69 65 72 80 77
59 63 68 71 73 74 75 77 79 82 85 85 87 88 90 92 93 97 102 102 100 101 99 101 107 112 116 118 122 128 129 128 126 109 99 93 88 79 69 60 59 63 74
62 65 68 71 78 81 81 81 83 83 86 88 90 94 96 99 102 104 105 105 103 101 103 108 113 117 121 128 132 131 128 127 115 107 100 92 84 76 66 56 53 56 64
70 73 74 76 81 83 85 86 87 90 92 95 96 100 101 103 105 106 106 106 103 105 112 116 118 122 127 131 135 131 130 130 117 103 94 86 80 72 63 55 48 53 57
78 80 79 81 85 90 92 95 96 96 98 103 103 103 104 105 105 106 106 104 109 114 119 122 124 128 129 130 134 131 126 119 107 97 90 82 75 68 62 55 50 47 56
85 83 82 84 89 93 94 97 101 105 103 104 105 105 106 105 106 106 110 114 118 119 124 126 130 131 132 134 133 130 124 113 101 92 85 78 71 65 61 56 51 48 52
90 91 90 95 98 99 102 106 105 105 106 105 105 104 106 109 111 115 118 121 122 125 127 127 128 132 134 132 129 122 113 102 94 87 81 74 68 65 61 58 55 50 52
99 99 98 97 102 104 104 105 101 101 103 104 107 112 114 115 118 121 121 122 125 127 131 134 137 133 130 129 121 112 102 96 90 83 78 70 67 64 62 61 58 52 50
105 103 103 104 106 106 103 104 110 112 112 115 116 116 119 117 118 119 120 123 127 131 135 138 131 127 130 119 112 104 97 92 86 81 75 70 67 64 62 62 59 53 49
109 107 109 110 110 112 114 112 113 117 119 118 119 120 119 119 121 122 127 129 132 136 134 129 124 120 117 108 104 99 95 90 85 79 72 69 64 63 61 60 58 55 50
110 111 112 113 114 114 116 117 118 118 118 121 123 125 123 123 125 129 131 135 136 131 122 117 115 112 109 102 99 96 92 87 82 77 73 68 65 63 61 58 55 53 51
115 117 115 114 115 117 119 119 121 123 122 124 127 126 127 128 131 134 136 130 123 116 113 111 107 103 99 97 95 92 89 84 79 76 71 68 68 65 62 59 54 50 48
125 125 121 120 119 119 117 118 121 125 128 130 131 129 132 133 132 121 114 114 111 109 104 103 101 98 96 93 90 88 83 80 77 71 69 69 68 65 62 59 54 51 50
133 131 128 124 122 121 121 124 127 129 129 130 131 128 126 118 114 110 109 106 104 102 99 99 96 96 92 89 85 83 80 76 73 70 68 67 67 65 60 55 53 54 53
137 137 138 135 132 130 128 129 131 131 126 120 118 112 111 105 106 107 104 100 98 93 94 93 93 91 87 82 80 77 75 73 71 70 67 65 64 62 55 51 53 55 52
144 143 144 140 136 135 134 132 125 120 116 112 109 106 106 104 105 100 96 91 88 89 89 89 87 84 82 80 77 74 73 72 72 70 69 65 61 56 52 51 52 52 52
141 140 143 138 134 128 129 125 113 110 106 105 103 100 100 96 94 89 85 82 83 86 85 83 81 80 80 77 74 73 72 72 71 70 69 65 59 54 52 49 48 49 47
131 130 131 122 122 117 114 108 104 103 100 96 93 92 89 84 80 80 79 80 82 82 80 80 80 79 78 77 76 76 74 72 69 67 66 61 55 53 50 48 47 44 41
110 110 108 104 107 98 95 92 88 89 88 84 83 79 78 76 75 75 77 79 78 78 78 79 80 78 79 79 78 77 75 72 68 65 60 55 51 49 46 44 42 41 38
92 91 88 85 80 81 82 80 81 80 75 73 72 72 70 70 71 74 76 75 76 78 77 78 79 79 80 81 80 77 73 69 65 61 56 51 49 46 43 39 35 35 35
68 68 68 70 69 68 67 68 68 68 69 66 66 66 65 66 69 73 72 73 76 77 78 81 82 81 83 83 78 73 69 64 58 55 53 52 49 46 41 36 32 31 34
57 58 60 58 57 60 59 58 59 58 59 60 60 60 62 64 67 70 71 74 76 78 81 83 83 84 83 78 73 69 65 58 54 51 49 50 47 43 40 35 30 28 32
Wind_Direction
274 277 284 291 295 295 295 295 297 300 302 302 303 301 300 306 308 307 306 307 308 305 305 306 308 309 310 310 306 304 306 307 305 305 306 304 306 301 296 288 281 276 271
272 281 284 288 293 293 293 295 298 300 300 301 301 300 303 305 307 306 306 307 305 305 307 308 309 310 310 306 304 306 308 307 307 308 307 306 307 301 293 285 278 274 270
275 280 289 291 289 291 294 297 299 298 300 299 299 302 303 303 305 304 305 306 304 306 306 308 309 309 305 303 305 307 307 306 308 308 308 304 303 299 294 289 280 273 266
289 287 286 287 290 294 295 295 297 299 298 299 301 302 302 303 303 304 304 304 305 305 306 307 308 305 303 304 307 307 307 308 308 309 307 307 302 296 289 286 284 276 271
285 284 284 288 292 293 293 296 298 297 298 300 300 301 302 302 303 303 305 305 306 307 307 308 304 303 305 307 307 308 307 309 310 311 308 308 304 296 288 283 279 280 269
277 281 285 287 290 293 294 294 296 297 298 298 299 300 300 301 301 303 304 306 307 307 306 303 304 305 306 306 307 307 309 310 311 311 309 306 304 298 292 284 274 270 276
282 283 285 289 291 292 292 294 295 295 295 296 297 299 300 300 301 302 304 306 307 304 303 303 305 306 307 306 309 309 311 313 312 311 309 306 303 297 292 284 273 267 265
279 281 284 288 288 288 290 292 294 294 294 295 297 296 298 300 301 301 303 304 303 302 303 305 305 306 305 308 307 310 312 312 312 309 307 305 302 297 292 284 272 267 264
281 281 284 288 289 291 293 293 293 294 294 296 296 297 297 297 299 300 301 299 300 301 303 304 306 305 307 308 309 312 312 312 310 309 307 305 302 297 293 287 277 268 270
281 280 285 288 290 290 290 291 292 294 294 294 295 295 295 296 296 298 297 299 300 303 304 304 304 307 308 309 310 311 312 310 309 308 306 305 302 298 294 289 282 272 264
281 281 281 283 286 289 289 289 290 293 294 293 293 293 294 294 295 297 298 299 302 303 304 306 307 307 308 309 310 311 310 309 308 308 306 304 302 299 295 291 285 276 267
282 283 285 287 287 288 289 291 291 290 290 290 291 291 292 294 296 297 299 300 302 303 304 306 307 307 307 309 309 310 309 308 308 307 306 304 302 298 294 291 287 279 269
282 284 285 286 285 286 286 287 289 289 290 291 292 292 294 296 297 299 302 302 302 304 304 304 306 308 308 307 309 310 309 308 307 307 305 304 302 297 295 293 289 283 273
280 282 282 282 283 284 286 287 288 288 290 292 292 292 294 296 297 298 300 301 303 303 304 306 306 305 308 307 309 308 308 308 307 306 305 304 299 296 295 292 288 285 278
277 278 280 281 284 284 284 286 288 289 290 291 292 293 295 296 298 298 301 301 301 302 303 304 306 305 305 307 308 307 307 307 306 306 306 303 299 297 294 291 287 284 280
276 276 278 278 280 283 284 285 287 290 292 292 294 296 297 296 298 299 298 300 300 303 303 303 305 305 306 306 306 306 306 306 306 305 304 302 301 298 296 293 290 283 278
280 280 281 282 283 286 287 288 289 290 291 291 293 293 294 296 297 299 298 300 303 302 303 304 304 305 305 305 306 306 306 305 305 304 303 302 300 298 296 295 293 287 278
279 280 281 283 284 284 284 284 286 288 290 289 292 294 297 297 296 300 301 301 302 302 301 302 303 303 304 305 306 306 306 305 304 303 303 301 298 296 296 296 294 287 280
282 283 285 286 287 287 289 290 290 293 293 292 293 294 295 297 300 300 299 301 299 300 300 301 302 303 305 305 305 304 305 305 304 304 302 300 299 299 299 297 291 287 284
280 282 284 286 287 288 290 291 293 291 293 293 295 296 297 298 298 297 296 297 300 299 300 302 303 304 304 305 306 306 306 306 306 306 304 301 300 300 298 292 288 285 284
276 279 280 284 287 288 288 289 290 290 289 292 291 293 293 292 293 294 297 298 298 299 302 302 303 304 306 306 307 308 308 307 306 305 304 303 304 300 295 291 288 286 283
275 278 280 281 283 284 283 284 285 286 287 286 286 287 289 292 294 296 297 298 299 301 302 303 305 306 307 308 310 310 309 307 305 305 304 305 303 298 295 293 291 286 283
272 275 276 277 277 279 280 281 281 280 282 285 286 290 291 293 295 297 296 299 301 301 303 305 305 308 310 311 311 311 310 309 308 305 305 304 299 296 295 293 290 287 283
266 269 273 274 275 275 276 277 278 280 283 285 286 287 291 294 295 294 297 299 301 303 304 306 308 311 312 312 312 312 311 310 308 308 308 304 301 300 301 298 293 285 277
269 268 269 269 272 273 273 273 275 279 282 284 287 290 292 293 293 295 298 301 301 303 306 309 311 312 312 313 312 311 311 310 309 309 306 304 303 303 301 300 293 284 278
272 272 271 272 270 269 272 276 278 279 280 282 286 288 288 293 294 297 300 301 302 305 308 310 311 313 312 312 311 311 311 310 310 306 303 302 302 302 302 301 293 281 276
Height
10705 10700 10696 10692 10691 10692 10689 10686 10682 10679 10676 10672 10669 10664 10659 10655 10649 10644 10638 10631 10625 10618 10612 10607 10601 10595 10586 10578 10572 10568 10561 10555 10550 10543 10530 10512 10498 10486 10477 10468 10465 10461 10463
10695 10691 10687 10682 10679 10678 10676 10673 10670 10666 10661 10658 10654 10648 10645 10639 10633 10628 10622 10615 10607 10600 10592 10586 10579 10572 10564 10556 10550 10543 10534 10525 10517 10512 10503 10495 10471 10453 10443 10440 10431 10431 10427
10682 10679 10676 10671 10669 10666 10662 10659 10656 10650 10646 10641 10637 10633 10628 10623 10616 10611 10606 10599 10589 10581 10573 10565 10559 10551 10542 10534 10526 10518 10509 10498 10486 10476 10466 10458 10453 10442 10414 10400 10395 10399 10396
10668 10665 10662 10657 10655 10653 10646 10644 10641 10634 10629 10624 10620 10616 10610 10604 10598 10592 10588 10581 10572 10561 10552 10544 10538 10529 10522 10512 10499 10491 10480 10470 10458 10442 10429 10419 10414 10413 10409 10384 10356 10361 10362
10654 10651 10647 10643 10639 10638 10633 10628 10626 10619 10611 10606 10601 10597 10591 10585 10578 10571 10565 10559 10551 10541 10530 10522 10515 10507 10498 10486 10474 10463 10450 10439 10426 10413 10395 10384 10377 10372 10372 10367 10347 10322 10331
10645 10639 10633 10628 10623 10621 10618 10611 10608 10602 10594 10588 10583 10577 10572 10566 10558 10551 10542 10536 10529 10519 10508 10500 10491 10482 10470 10458 10446 10434 10420 10409 10396 10380 10367 10356 10348 10340 10337 10337 10328 10317 10291
10634 10628 10622 10617 10608 10602 10599 10595 10588 10583 10577 10571 10565 10559 10553 10545 10538 10528 10520 10513 10507 10497 10488 10477 10464 10455 10441 10427 10415 10401 10390 10379 10363 10350 10338 10327 10319 10312 10309 10310 10306 10297 10286
10620 10615 10611 10606 10598 10590 10586 10582 10576 10567 10561 10555 10547 10540 10533 10524 10516 10507 10498 10490 10484 10474 10463 10450 10438 10427 10413 10399 10385 10374 10360 10348 10334 10321 10311 10301 10292 10285 10282 10283 10285 10275 10270
10604 10601 10600 10593 10584 10575 10570 10564 10559 10550 10544 10536 10528 10521 10513 10504 10495 10486 10479 10470 10461 10452 10438 10424 10414 10400 10385 10370 10357 10346 10334 10318 10305 10294 10284 10275 10266 10259 10256 10257 10258 10259 10246
10582 10581 10582 10576 10568 10559 10552 10544 10540 10531 10523 10515 10509 10500 10491 10484 10475 10467 10458 10449 10438 10427 10413 10401 10387 10374 10358 10344 10330 10317 10307 10294 10281 10271 10259 10251 10242 10236 10233 10231 10233 10235 10230
10558 10560 10561 10557 10552 10544 10534 10524 10519 10509 10501 10493 10487 10478 10469 10461 10454 10445 10434 10424 10413 10402 10387 10373 10361 10347 10332 10318 10303 10291 10279 10267 10255 10246 10237 10229 10221 10214 10209 10206 10207 10209 10207
10534 10538 10537 10535 10530 10521 10512 10502 10497 10488 10480 10472 10466 10456 10445 10439 10431 10421 10410 10399 10388 10376 10363 10347 10335 10320 10305 10290 10277 10267 10253 10242 10232 10223 10215 10208 10200 10193 10189 10184 10181 10182 10184
10506 10514 10513 10511 10507 10500 10492 10482 10473 10464 10458 10449 10442 10430 10421 10416 10404 10395 10386 10373 10361 10350 10337 10322 10308 10292 10278 10262 10249 10240 10228 10218 10210 10202 10195 10187 10180 10173 10168 10162 10158 10156 10157
10489 10488 10487 10484 10481 10475 10467 10458 10448 10438 10432 10425 10414 10401 10398 10391 10379 10371 10360 10349 10335 10323 10311 10295 10282 10268 10252 10237 10226 10215 10205 10195 10186 10180 10174 10167 10161 10154 10148 10142 10137 10133 10132
10475 10469 10465 10462 10457 10447 10440 10431 10421 10413 10407 10400 10388 10379 10376 10366 10356 10346 10335 10322 10309 10297 10283 10269 10256 10244 10229 10216 10204 10191 10182 10174 10165 10158 10151 10145 10139 10132 10126 10121 10116 10112 10109
10444 10439 10445 10443 10436 10428 10417 10408 10401 10390 10382 10372 10361 10357 10348 10340 10331 10321 10307 10294 10280 10270 10256 10245 10233 10220 10207 10194 10184 10172 10163 10154 10148 10140 10131 10124 10117 10109 10103 10097 10092 10089 10088
10400 10404 10413 10413 10410 10400 10394 10387 10377 10367 10358 10345 10340 10333 10325 10317 10304 10292 10279 10267 10256 10243 10231 10222 10210 10198 10186 10175 10165 10152 10145 10135 10127 10120 10113 10104 10095 10089 10082 10076 10070 10065 10062
10372 10375 10382 10384 10381 10378 10372 10364 10359 10348 10333 10321 10317 10307 10298 10287 10279 10267 10254 10242 10232 10220 10209 10199 10188 10177 10167 10155 10147 10135 10126 10115 10107 10100 10094 10084 10075 10067 10063 10058 10049 10043 10038
10333 10332 10332 10336 10341 10340 10334 10329 10321 10315 10303 10293 10287 10281 10272 10260 10252 10241 10230 10220 10210 10199 10188 10178 10167 10157 10148 10139 10129 10119 10108 10097 10088 10079 10071 10063 10054 10046 10042 10038 10030 10023 10018
10305 10303 10299 10301 10302 10303 10301 10296 10291 10282 10275 10264 10260 10251 10243 10234 10228 10219 10209 10200 10189 10178 10168 10159 10148 10137 10126 10118 10109 10099 10089 10078 10068 10058 10049 10041 10034 10028 10022 10018 10012 10006 10001
10279 10282 10279 10281 10279 10275 10273 10272 10263 10256 10249 10245 10235 10231 10224 10218 10209 10199 10189 10180 10168 10158 10149 10139 10128 10119 10109 10098 10089 10078 10069 10059 10048 10038 10028 10020 10014 10008 10002 9997 9994 9989 9986
10256 10256 10254 10256 10251 10250 10249 10247 10241 10234 10228 10223 10218 10213 10206 10198 10189 10179 10169 10159 10149 10140 10130 10120 10110 10101 10090 10079 10069 10058 10048 10038 10029 10019 10009 10002 9996 9990 9984 9980 9975 9973 9971
10234 10231 10232 10233 10232 10232 10226 10219 10218 10213 10207 10203 10197 10193 10185 10178 10169 10160 10149 10141 10132 10122 10113 10102 10092 10083 10071 10059 10049 10038 10027 10016 10007 9999 9993 9986 9980 9973 9969 9965 9961 9958 9956
10210 10210 10208 10210 10209 10204 10200 10196 10192 10189 10187 10183 10178 10173 10167 10160 10150 10142 10133 10124 10115 10105 10095 10085 10074 10064 10052 10040 10029 10018 10007 9997 9987 9979 9973 9967 9962 9958 9954 9950 9948 9945 9943
10188 10188 10188 10186 10185 10183 10180 10178 10174 10171 10167 10163 10159 10155 10148 10141 10134 10125 10117 10108 10099 10089 10077 10066 10055 10046 10034 10022 10011 10000 9990 9981 9973 9965 9957 9951 9946 9942 9939 9937 9936 9933 9930
10162 10163 10164 10164 10164 10162 10160 10159 10157 10155 10151 10148 10144 10139 10132 10126 10118 10109 10100 10091 10082 10071 10060 10049 10039 10028 10015 10004 9993 9984 9973 9966 9959 9953 9946 9938 9935 9930 9927 9924 9922 9921 9919